McAllen, TX

4:38 PM CST on January 22, 2017 (GMT -0600)
McAllen Miller International

Weather History for KMFE - July, 2012

Change the Weather History Date:

Thursday, July 12, 2012

  Actual Average Record
Temperature  
Mean Temperature 91 °F 86 °F  
Max Temperature 103 °F 97 °F 105 °F (1988)
Min Temperature 79 °F 76 °F 71 °F (1974)
Degree Days  
Heating Degree Days 0 0  
Month to date heating degree days 0 0  
Since 1 June heating degree days 0 0  
Since 1 July heating degree days 0 0  
Cooling Degree Days 26 22  
Month to date cooling degree days 279 254  
Year to date cooling degree days 2522 2137  
Since 1 June cooling degree days 949 882  
Growing Degree Days 40 (Base 50)    
Moisture  
Dew Point 72 °F    
Average Humidity 58    
Maximum Humidity 85    
Minimum Humidity 31    
Precipitation  
Precipitation T in 0.08 in 0.66 in (1974)
Month to date precipitation 0.03 0.91  
Year to date precipitation 12.91 10.27  
Sea Level Pressure  
Sea Level Pressure 29.90 in    
Wind  
Wind Speed 8 mph (SE)    
Max Wind Speed 28 mph    
Max Gust Speed 37 mph    
Visibility 10 miles    
Events      
T = Trace of Precipitation, MM = Missing Value Source: NWS Daily Summary

Daily Weather History Graph

Daily Weather History Graph

Search for Another Location

Airport or City:

Trip Planner

Search our weather history database for the weather conditions in past years. The results will help you decide how hot, cold, wet, or windy it might be!

Date:

Astronomy

Jul. 12, 2012 Rise Set
Actual Time 6:49 AM CDT 8:28 PM CDT
Civil Twilight 6:23 AM CDT 8:53 PM CDT
Nautical Twilight 5:52 AM CDT 9:24 PM CDT
Astronomical Twilight 5:20 AM CDT 9:56 PM CDT
Moon 1:42 AM CDT (7/12) 3:10 PM CDT (7/12)
Length of Visible Light 14h 30m
Length of Day
13h 39m
Waning Crescent, 35% of the Moon is Illuminated
Jul 12
Waning Crescent
Jul 18
New
Jul 26
First Quarter
Aug 1
Full
Aug 9
Last Quarter

Hourly Weather History & Observations

Time (CDT) Temp. Heat Index Dew Point Humidity Pressure Visibility Wind Dir Wind Speed Gust Speed Precip Events Conditions
12:53 AM 82.0 °F 87.9 °F 73.9 °F 76% 29.93 in 10.0 mi SSE 9.2 mph - N/A   Clear
1:26 AM 82.4 °F 88.2 °F 73.4 °F 74% 29.93 in 10.0 mi SSE 9.2 mph - N/A   Mostly Cloudy
1:53 AM 82.0 °F 87.9 °F 73.9 °F 76% 29.92 in 10.0 mi SSE 9.2 mph - N/A   Partly Cloudy
2:53 AM 81.0 °F 86.2 °F 73.9 °F 79% 29.91 in 10.0 mi SE 6.9 mph - N/A   Clear
3:53 AM 81.0 °F 86.2 °F 73.9 °F 79% 29.89 in 10.0 mi SE 5.8 mph - N/A   Mostly Cloudy
4:01 AM 80.6 °F 85.4 °F 73.4 °F 79% 29.90 in 10.0 mi SE 5.8 mph - N/A   Scattered Clouds
4:53 AM 80.1 °F 84.5 °F 73.9 °F 81% 29.88 in 10.0 mi ESE 5.8 mph - N/A   Clear
5:53 AM 79.0 °F - 73.9 °F 84% 29.89 in 10.0 mi ESE 4.6 mph - N/A   Clear
6:53 AM 79.0 °F - 73.0 °F 82% 29.89 in 10.0 mi East 4.6 mph - N/A   Clear
7:53 AM 80.1 °F 84.5 °F 73.9 °F 81% 29.91 in 10.0 mi SE 3.5 mph - N/A   Clear
8:53 AM 84.0 °F 91.2 °F 73.9 °F 72% 29.92 in 10.0 mi South 8.1 mph - N/A   Partly Cloudy
9:18 AM 86.0 °F 93.4 °F 73.4 °F 66% 29.93 in 10.0 mi SSE 5.8 mph - N/A   Mostly Cloudy
9:53 AM 84.9 °F 92.1 °F 73.9 °F 69% 29.93 in 10.0 mi South 9.2 mph - N/A   Scattered Clouds
10:53 AM 89.1 °F 97.0 °F 73.0 °F 59% 29.93 in 10.0 mi South 10.4 mph - N/A   Clear
11:53 AM 93.9 °F 100.8 °F 71.1 °F 47% 29.93 in 10.0 mi South 9.2 mph - N/A   Scattered Clouds
12:53 PM 97.0 °F 102.8 °F 69.1 °F 40% 29.91 in 10.0 mi SSE 9.2 mph 18.4 mph N/A   Partly Cloudy
1:53 PM 98.1 °F 101.8 °F 66.0 °F 35% 29.89 in 10.0 mi Variable 6.9 mph - N/A   Clear
2:53 PM 100.9 °F 104.6 °F 64.9 °F 31% 29.86 in 10.0 mi SE 11.5 mph 16.1 mph N/A   Scattered Clouds
3:53 PM 100.9 °F 104.6 °F 64.9 °F 31% 29.83 in 10.0 mi SSE 8.1 mph 17.3 mph N/A   Clear
4:53 PM 95.0 °F 102.5 °F 71.1 °F 46% 29.83 in 10.0 mi East 26.5 mph 34.5 mph N/A   Mostly Cloudy
5:53 PM 89.1 °F 95.0 °F 71.1 °F 55% 29.83 in 10.0 mi East 11.5 mph - 0.00 in   Clear
6:53 PM 89.1 °F 95.0 °F 71.1 °F 55% 29.83 in 10.0 mi East 13.8 mph - N/A   Clear
7:53 PM 88.0 °F 95.6 °F 73.0 °F 61% 29.87 in 10.0 mi East 8.1 mph - N/A   Mostly Cloudy
8:53 PM 87.1 °F 93.6 °F 72.0 °F 61% 29.90 in 10.0 mi South 4.6 mph - N/A   Mostly Cloudy
9:53 PM 84.9 °F 89.4 °F 70.0 °F 61% 29.92 in 10.0 mi South 3.5 mph - N/A   Partly Cloudy
10:53 PM 84.0 °F 87.0 °F 68.0 °F 58% 29.92 in 10.0 mi ESE 4.6 mph - N/A   Clear
11:53 PM 82.9 °F 86.5 °F 69.1 °F 63% 29.94 in 10.0 mi SE 5.8 mph - N/A   Clear